Location: Ferintosh
(52.7647°N, 112.9692°W)
Time: 15:01:24
(UTC+00:00)

Transit 2A - Pass Details

Date: 25 May 2024
Orbit: 593 x 959 km, 66.7° (Epoch: 14 June)

Event Time Altitude Azimuth Distance (km) Brightness Sun altitude
Rises 15:04:43 0° 314° (NW) 3,420 9.0 31.1°
Reaches altitude 10° 15:07:30 10° 302° (WNW) 2,536 8.3 31.5°
Maximum altitude 15:12:15 26° 249° (WSW) 1,736 7.6 32.2°
Drops below altitude 10° 15:17:13 10° 196° (SSW) 2,658 8.8 32.9°
Sets 15:20:13 0° 184° (S) 3,619 9.5 33.4°
